Regional Weather Roundup
Issued by NWS Cleveland, OH

Home | Current Version | Previous Version | Text Only | Print | Product List | Glossary Off
Versions: 1 2 3 4 5 6 7 8 9 10 11 12 13 14 15 16 17 18 19 20 21 22 23 24 25 26 27 28 29 30 31 32 33 34 35 36 37 38 39 40 41 42 43 44 45 46 47 48 49 50

000
ASUS41 KCLE 301212
RWRCLE
OHIO REGIONAL WEATHER ROUNDUP
NATIONAL WEATHER SERVICE WILMINGTON, OH
800 AM EDT MON MAY 30 2016

NOTE: "FAIR" INDICATES FEW OR NO CLOUDS BELOW 12,000 FEET WITH NO
SIGNIFICANT WEATHER AND/OR OBSTRUCTIONS TO VISIBILITY.

OHZ001>008-015>018-024>027-034-035-043-044-301300-
   NORTHWEST OHIO

CITY           SKY/WX    TMP DP  RH WIND       PRES   REMARKS
DEFIANCE       FAIR      68  58  70 SW5       30.03S
FINDLAY        FAIR      68  58  70 CALM      30.03R
TOLEDO EXPRESS FAIR      67  57  70 W7        30.02R
TOLEDO EXEC    FAIR      67  57  70 SW7       30.03R
LIMA           FAIR      67  59  75 SW3       30.05R
$$

OHZ009>014-019>023-028>033-038-089-301300-
   NORTHEAST OHIO

CITY           SKY/WX    TMP DP  RH WIND       PRES   REMARKS
CLE-HOPKINS    FAIR      68  61  78 SW5       30.03S
CLE-LAKEFRONT  FAIR      70  61  73 SW6       30.00S
CUY CO. ARPT   MOSUNNY   70  63  78 W6        30.02R
LORAIN-ELYRIA  FAIR      67  60  78 W3        30.02S
ASHTABULA      FAIR      66  62  87 W6        30.02R
AKRON-CANTON   FAIR      67  62  84 NW5       30.03S
WOOSTER        FAIR      68  61  78 N7        30.04R
MANSFIELD      FAIR      68  61  78 CALM      30.04S
YOUNGSTOWN     PTSUNNY   67  62  84 W6        30.02S
$$

OHZ042-051>053-060>062-070>072-077>081-301300-
  SOUTHWEST OHIO

CITY           SKY/WX    TMP DP  RH WIND       PRES   REMARKS
CINC-COVINGTON FAIR      69  65  86 CALM      30.05S
CINC-LUNKEN    FAIR      66  66 100 CALM      30.05S
HAMILTON       FAIR      70  65  84 CALM      30.06R
DAYTON         FAIR      69  60  73 NW5       30.07R
WRIGHT-PAT AFB MOSUNNY   66  66 100 CALM      30.05S
DAYTON GENERAL FAIR      68  63  84 W3        30.05S
WILMINGTON     FAIR      66  63  90 W7        30.05R
$$

OHZ036-037-039>041-045>050-054>059-063>069-073>076-082>088-301300-
  CENTRAL AND SOUTHEAST OHIO

CITY           SKY/WX    TMP DP  RH WIND       PRES   REMARKS
COLUMBUS       PTSUNNY   66  63  90 CALM      30.03R
OSU AIRPORT    FAIR      69  62  78 N5        30.03S
BOLTON FIELD   NOT AVBL
RICKENBACK AFB FAIR      66  64  91 NW3       30.03R
NEWARK         FAIR      67  62  84 CALM      30.02S
MARION         FAIR      66  62  87 CALM      30.04S
LANCASTER      FAIR      67  63  87 CALM      30.03S
ZANESVILLE     FAIR      69  61  75 W5        30.03S
NEW PHILLY     FAIR      68  63  84 CALM      30.03S
$$




USA.gov is the U.S. government's official web portal to all federal, state and local government web resources and services.